Delta Virtual Airport Information Service

Bozeman Yellowstone International Airport

ICAO: KBZN Country: United States
Latitude: 45.7775 Longitude: -111.152
Latest Arrival : DAL1117 (2A) (KMSP-KBZN) Latest Departure : DAL1638 (KBZN-KSLC)


WX CaptureLIVE
Data provided by noaa.gov | Fetched at 18:19:51

METAR : KBZN 172156Z VRB03KT 10SM CLR 33/01 A3019 RMK AO2 SLP181 T03280011

TAF : KBZN 172156Z VRB03KT 10SM CLR 33/01 A3019 RMK AO2 SLP181 T03280011


Runway Data for KBZN
Data provided by openaviationdata.com

Runway ID Mag Var Hdg Length Elevation Surface ILS Freq ILS Id ILS Slope
3 15 30° 2647 ft 4470 ft Asphalt -- -- --
11 15 120° 3194 ft 4470 ft Grass -- -- --
12 15 120° 8992 ft 4470 ft Asphalt 109.3 IBZN 3
21 15 210° 2647 ft 4470 ft Asphalt -- -- --
29 15 300° 3194 ft 4470 ft Grass -- -- --
30 15 300° 8992 ft 4470 ft Asphalt -- -- --

Bozeman Yellowstone International Airport, United States
Use only for reference purposes



Not for navigational purposes.